Location: Clyde
(45.1830°S, 169.3170°E)
Time: 17:37:20
(UTC+12:00)

SJ 16-02 - Pass Details

Date: 14 May 2021
Orbit: 606 x 616 km, 75.0° (Epoch: 16 June)

Event Time Altitude Azimuth Distance (km) Brightness Sun altitude
Rises 20:38:35 0° 212° (SSW) 2,910 5.3 -34.1°
Reaches altitude 10° 20:41:11 10° 226° (SW) 1,998 4.5 -34.5°
Enters shadow 20:43:31 21° 254° (WSW) 1,404 3.7 -34.9°
